Location: Boleita
(10.4833°N, 66.8167°W)
Time: 02:32:36
(UTC+00:00)

Cosmos 1733 Rocket - Pass Details

Date: 08 November 2025
Orbit: 597 x 620 km, 82.5° (Epoch: 08 December)

Event Time Altitude Azimuth Distance (km) Brightness Sun altitude
Exits shadow 09:27:01 13° 325° (NW) 1,751 4.9 -13.4°
Maximum altitude 09:30:15 30° 267° (W) 1,075 3.8 -12.6°
Drops below altitude 10° 09:34:02 10° 206° (SSW) 1,947 5.5 -11.8°
Sets 09:36:27 0° 195° (SSW) 2,854 6.5 -11.2°
